THORAD AGENA D DEB, 6767

Orbit data source: Space-Track

THORAD AGENA D DEB, 6767 is space debris in SSO originally from a launch on Wed, 08 Apr 1970 UTC launched from the Air Force Western Test Range (AFWTR). Debris objects in space refer to the collection of defunct objects orbiting the Earth. Examples of debris include non-operational satellites, rocket bodies, and fragments generated from explosions, collisions, or faulty payload assembly.

Loading next visibility...
Identifier
6767, 1970-025NF
Orbit
SSO
Country
Flag of USUS
Related business
Manufacturer
Unknown
Mission
Spacecraft
Bus & Motor
Unknown
Mass
Unknown
Launch date (UTC)
1970-04-08 (56 years ago)
Launch vehicle
Unknown
Launch site
Air Force Western Test Range (AFWTR)
Object type
Payload
Rocket body
Debris
Shape & HBR
Unknown shape, 0.1 m
Radar Cross Section
Small (<0.1 m²)

Expand to show TLE details & history
Last TLE update: 2 days ago

TLE from 2 days ago
0 THORAD AGENA D DEB
1 06767U 70025NF  25344.99789034  .00005865  00000-0  34539-2 0  9997
2 06767  99.0225 242.4281 0024447   1.2810 358.8417 14.08158509 91266
Epoch: 2025-12-10T23:56Z
TLE epoch observation values (Epoch: 2025-12-10T23:56:57.725Z)
Latitude
-0.00006°
Longitude
163.2274°
Altitude
850.859 km
Speed
7.436 km/s
True Right ascension
16h 09m 42s
True Declination
0° 00' 00"
Sunlit
Object was in daylight at epoch
Visualization orbit readout
Latitude
Unknown
Longitude
Unknown
Altitude
Unknown
Speed
Unknown
Apparent Right ascension
Unknown
Apparent Declination
Unknown
Sunlit
N/A
Visualization observer readout
Local Sidereal Time
23:59:53
Azimuth
Unknown
Elevation
Unknown
Doppler factor
Unknown
Orbital elements
Apogee altitude
880.572 km
Perigee altitude
845.168 km
Semi-major axis
7,241.007 km
Eccentricity
0.00244
Inclination
99.0225°
RAAN
242.4281°
Arg. of periapsis
1.281°
True anomaly
358.83602°
Mean anomaly
358.8417°
Eccentric anomaly
358.83886°
Mean motion
3.52245 °/min
Orbital period
102.2 mins
BSTAR
0.0034539
Loading maneuver chart data...
Computing Atmospheric mass density...

Documentation

Showing up to 5 results
|